Skip Page Navigation
NASA JPL Caltech
NASA Logo - Jet Propulsion Laboratory + View the NASA Portal
+ Near-Earth Object (NEO) Program
Search JPL
JPL Home Earth Solar System Stars & Galaxies Technology
JPL Solar System Dynamics
BODIES ORBITS EPHEMERIDES TOOLS PHYSICAL DATA DISCOVERY FAQ SITE MAP
JPL Small-Body Database Browser
Search: [ help ]  
163132 (2002 CU11)
Classification: Apollo [NEO, PHA]          SPK-ID: 2163132
Ephemeris | Orbit Diagram | Orbital Elements | Physical Parameters | Discovery Circumstances | Close-Approach Data ]

[ hide orbit diagram ]
Orbit Diagram
Note: Make sure you have Java enabled on your browser to see the applet. This applet is provided as a 3D orbit visualization tool. The applet was implemented using 2-body methods, and hence should not be used for determining accurate long-term trajectories (over several years or decades) or planetary encounter circumstances. For accurate long-term ephemerides, please instead use our Horizons system.
Orbit Viewer

Additional Notes: the orbits shown in the applet are color coded. The planets are white lines, and the asteroid/comet is a blue line. The bright white line indicates the portion of the orbit that is above the ecliptic plane, and the darker portion is below the ecliptic plane. Likewise for the asteroid/comet orbit, the light blue indicates the portion above the ecliptic plane, and the dark blue the portion below the ecliptic plane.

Orbit Viewer applet originally written and kindly provided by Osamu Ajiki (AstroArts), and further modified by Ron Baalke (JPL).


Orbital Elements at Epoch 2456400.5 (2013-Apr-18.0) TDB
Reference: JPL 74 (heliocentric ecliptic J2000)
 Element Value Uncertainty (1-sigma)   Units 
e .2954867957508021 1.7754e-07  
a 1.220090358595681 7.3223e-09 AU
q .8595697680077961 2.1602e-07 AU
i 48.77190191340435 2.9113e-05 deg
node 157.77440154806 8.1956e-06 deg
peri 110.5974060506427 3.3911e-05 deg
M 35.98216483602037 3.6388e-05 deg
tp 2456351.299308380759
(2013-Feb-27.79930838)
4.939e-05 JED
period 492.2507876790076
1.35
4.4313e-06
1.213e-08
d
yr
n .7313345331501081 6.5836e-09 deg/d
Q 1.580610949183566 9.486e-09 AU
  Orbit Determination Parameters
   # obs. used (total)      254  
   data-arc span      3107 days (8.51 yr)  
   first obs. used      2002-02-07  
   last obs. used      2010-08-11  
   planetary ephem.      DE405  
   SB-pert. ephem.      SB405-CPV-2  
   condition code      0  
   fit RMS      .59438  
   data source      ORB  
   producer      Otto Matic  
   solution date      2013-Apr-29 15:39:54  

Additional Information
 Earth MOID = .000475982 AU 
 T_jup = 4.875 
[ show covariance matrix ]

Ephemeris | Orbit Diagram | Orbital Elements | Physical Parameters | Discovery Circumstances | Close-Approach Data ]

Physical Parameter Table
Parameter Symbol Value Units Sigma Reference Notes
absolute magnitude H 18.314 mag .65422 74 autocmod 2.5c

163132 (2002 CU11)          Discovered 2002-Feb-07 by LINEAR at Socorro (704)
Reference: 20070926/Numbers.arcLast Updated: 2007-09-30

[ show close-approach data ]
Ephemeris | Orbit Diagram | Orbital Elements | Physical Parameters | Discovery Circumstances | Close-Approach Data ]
ABOUT SSD CREDITS/AWARDS PRIVACY/COPYRIGHT GLOSSARY LINKS
FirstGov 2013-May-26 09:21 UT
(server date/time)  
NASA Home Page
Site Manager:   Donald K. Yeomans
Webmaster  Alan B. Chamberlin